Salem, IL

1:51 PM CDT on August 29, 2016 (GMT -0500)
Salem-Leckrone

Weather History for KSLO - October, 2012

Change the Weather History Date:

Wednesday, October 3, 2012

  Actual Average Record
Temperature  
Mean Temperature 67 °F -  
Max Temperature 78 °F 75 °F 89 °F (2006)
Min Temperature 57 °F 48 °F 28 °F (1974)
Cooling Degree Days 2    
Growing Degree Days 17 (Base 50)    
Moisture  
Dew Point 51 °F    
Average Humidity 65    
Maximum Humidity 89    
Minimum Humidity 28    
Precipitation  
Precipitation 0.24 in - - ()
Sea Level Pressure  
Sea Level Pressure 30.00 in    
Wind  
Wind Speed 5 mph (SSW)    
Max Wind Speed 18 mph    
Max Gust Speed 25 mph    
Visibility 10 miles    
Events Rain , Thunderstorm    
Averages and records for this station are not official NWS values.
T = Trace of Precipitation, MM = Missing Value Source: NWS Daily Summary

Daily Weather History Graph

Daily Weather History Graph

Search for Another Location

Airport or City:

Trip Planner

Search our weather history database for the weather conditions in past years. The results will help you decide how hot, cold, wet, or windy it might be!

Date:

Astronomy

Oct. 03, 2012 Rise Set
Actual Time 6:54 AM CDT 6:34 PM CDT
Civil Twilight 6:27 AM CDT 7:01 PM CDT
Nautical Twilight 5:56 AM CDT 7:31 PM CDT
Astronomical Twilight 5:25 AM CDT 8:02 PM CDT
Moon 8:29 PM CDT (10/3) 10:14 AM CDT (10/3)
Length of Visible Light 12h 33m
Length of Day
11h 40m
Waning Gibbous, 88% of the Moon is Illuminated
Oct 3
Waning Gibbous
Oct 8
Last Quarter
Oct 15
New
Oct 21
First Quarter
Oct 29
Full

Hourly Weather History & Observations

Time (CDT) Temp. Dew Point Humidity Pressure Visibility Wind Dir Wind Speed Gust Speed Precip Events Conditions
12:15 AM 57.9 °F 54.5 °F 88% 29.90 in 10.0 mi Calm Calm - N/A   Overcast
12:35 AM 58.1 °F 54.7 °F 88% 29.90 in 10.0 mi SW 3.5 mph - N/A   Overcast
12:55 AM 58.1 °F 54.5 °F 88% 29.90 in 10.0 mi West 3.5 mph - N/A   Overcast
1:15 AM 58.1 °F 54.5 °F 88% 29.91 in 10.0 mi WSW 4.6 mph - N/A   Overcast
1:35 AM 58.1 °F 54.5 °F 88% 29.91 in 10.0 mi SW 5.8 mph - N/A   Overcast
1:55 AM 58.1 °F 54.5 °F 88% 29.92 in 10.0 mi SW 5.8 mph - N/A   Overcast
2:15 AM 58.1 °F 54.5 °F 88% 29.93 in 10.0 mi WSW 4.6 mph - N/A   Overcast
2:35 AM 57.7 °F 54.5 °F 89% 29.93 in 10.0 mi SW 4.6 mph - N/A   Overcast
2:55 AM 57.9 °F 54.5 °F 88% 29.93 in 7.0 mi SW 4.6 mph - N/A   Overcast
3:15 AM 58.1 °F 54.1 °F 87% 29.93 in 7.0 mi SW 4.6 mph - N/A   Overcast
3:35 AM 57.6 °F 54.3 °F 89% 29.93 in 7.0 mi Calm Calm - N/A   Overcast
3:55 AM 57.2 °F 54.1 °F 89% 29.93 in 5.0 mi Calm Calm - N/A   Overcast
4:15 AM 57.7 °F 54.0 °F 87% 29.94 in 10.0 mi SW 3.5 mph - N/A   Overcast
4:35 AM 58.1 °F 53.2 °F 84% 29.94 in 10.0 mi SSW 5.8 mph - N/A   Overcast
4:55 AM 58.1 °F 52.9 °F 83% 29.96 in 10.0 mi SSW 4.6 mph - N/A   Overcast
5:15 AM 58.1 °F 53.1 °F 83% 29.96 in 10.0 mi SSW 5.8 mph - N/A   Overcast
5:35 AM 58.1 °F 52.7 °F 82% 29.97 in 10.0 mi SSW 5.8 mph - N/A   Overcast
5:55 AM 58.5 °F 52.2 °F 80% 29.97 in 10.0 mi SSW 5.8 mph - N/A   Overcast
6:15 AM 59.0 °F 52.0 °F 78% 29.98 in 10.0 mi SSW 6.9 mph - N/A   Overcast
6:35 AM 59.0 °F 50.9 °F 74% 29.99 in 10.0 mi SSW 6.9 mph - N/A   Overcast
6:55 AM 58.6 °F 50.5 °F 74% 29.99 in 10.0 mi SSW 5.8 mph - N/A   Overcast
7:15 AM 58.8 °F 50.5 °F 74% 30.00 in 10.0 mi South 5.8 mph - N/A   Overcast
7:35 AM 58.6 °F 50.7 °F 75% 30.00 in 10.0 mi South 4.6 mph - N/A   Overcast
7:55 AM 59.0 °F 50.9 °F 74% 30.00 in 10.0 mi South 5.8 mph - N/A   Overcast
8:15 AM 59.5 °F 51.3 °F 74% 30.01 in 10.0 mi SSW 4.6 mph - N/A   Overcast
8:35 AM 60.4 °F 51.1 °F 71% 30.01 in 10.0 mi SSW 5.8 mph - N/A   Overcast
8:55 AM 61.0 °F 51.1 °F 70% 30.01 in 10.0 mi South 6.9 mph - N/A   Overcast
9:15 AM 61.7 °F 51.1 °F 68% 30.01 in 10.0 mi South 5.8 mph - N/A   Overcast
9:35 AM 63.5 °F 51.3 °F 64% 30.02 in 10.0 mi South 4.6 mph - N/A   Overcast
9:55 AM 63.7 °F 51.1 °F 64% 30.02 in 10.0 mi South 6.9 mph - N/A   Overcast
10:15 AM 64.6 °F 51.1 °F 62% 30.02 in 10.0 mi South 3.5 mph - N/A   Overcast
10:35 AM 68.0 °F 51.8 °F 56% 30.02 in 10.0 mi South 4.6 mph - N/A   Overcast
10:55 AM 70.2 °F 50.5 °F 50% 30.02 in 10.0 mi SSE 4.6 mph - N/A   Overcast
11:15 AM 70.7 °F 48.4 °F 45% 30.02 in 10.0 mi SSW 9.2 mph - N/A   Overcast
11:35 AM 71.8 °F 48.0 °F 43% 30.02 in 10.0 mi SW 6.9 mph - N/A   Mostly Cloudy
11:55 AM 73.2 °F 48.4 °F 41% 30.01 in 10.0 mi SSW 9.2 mph - N/A   Scattered Clouds
12:15 PM 73.4 °F 47.7 °F 40% 30.01 in 10.0 mi South 5.8 mph - N/A   Clear
12:35 PM 74.3 °F 46.9 °F 38% 30.01 in 10.0 mi SSW 8.1 mph - N/A   Clear
12:55 PM 74.5 °F 47.3 °F 38% 30.01 in 10.0 mi South 9.2 mph - N/A   Clear
1:15 PM 75.7 °F 46.0 °F 35% 30.00 in 10.0 mi SSW 13.8 mph 18.4 mph N/A   Clear
1:35 PM 75.9 °F 44.4 °F 33% 30.00 in 10.0 mi SW 10.4 mph 18.4 mph N/A   Clear
1:55 PM 76.3 °F 44.4 °F 32% 29.99 in 10.0 mi SSW 13.8 mph 20.7 mph N/A   Scattered Clouds
2:15 PM 76.6 °F 40.8 °F 28% 29.99 in 10.0 mi SW 15.0 mph - N/A   Scattered Clouds
2:35 PM 77.5 °F 42.6 °F 29% 29.99 in 10.0 mi SW 11.5 mph - N/A   Scattered Clouds
2:55 PM 77.2 °F 42.3 °F 29% 29.99 in 10.0 mi SW 12.7 mph - N/A   Scattered Clouds
3:15 PM 77.2 °F 42.6 °F 29% 29.98 in 10.0 mi SW 12.7 mph 16.1 mph N/A   Scattered Clouds
3:35 PM 77.0 °F 42.8 °F 29% 29.98 in 10.0 mi SW 10.4 mph - N/A   Scattered Clouds
3:55 PM 77.0 °F 42.3 °F 29% 29.98 in 10.0 mi SW 10.4 mph - N/A   Scattered Clouds
4:15 PM 77.2 °F 42.4 °F 29% 29.99 in 10.0 mi SSW 10.4 mph - N/A   Scattered Clouds
4:35 PM 75.4 °F 43.9 °F 32% 30.00 in 10.0 mi SSW 6.9 mph - N/A   Scattered Clouds
4:55 PM 75.9 °F 44.6 °F 33% 30.00 in 10.0 mi South 8.1 mph - N/A   Scattered Clouds
5:15 PM 74.7 °F 47.5 °F 38% 30.00 in 10.0 mi South 9.2 mph - N/A   Scattered Clouds
5:35 PM 73.4 °F 49.3 °F 42% 30.00 in 10.0 mi South 5.8 mph - N/A   Scattered Clouds
5:55 PM 73.4 °F 50.4 °F 44% 30.01 in 10.0 mi South 4.6 mph - N/A   Mostly Cloudy
6:15 PM 71.8 °F 51.1 °F 48% 30.01 in 10.0 mi South 6.9 mph - N/A   Overcast
6:35 PM 70.3 °F 52.3 °F 53% 30.01 in 10.0 mi SSE 3.5 mph - N/A   Overcast
6:55 PM 67.6 °F 54.0 °F 61% 30.03 in 7.0 mi SW 10.4 mph - N/A Rain , Thunderstorm Rain
7:15 PM 62.8 °F 52.3 °F 69% 30.05 in 7.0 mi SSW 18.4 mph 25.3 mph 0.14 in Rain , Thunderstorm Rain
7:35 PM 61.2 °F 52.0 °F 72% 30.04 in 5.0 mi SE 3.5 mph - 0.21 in Rain , Thunderstorm Heavy Thunderstorms and Rain
7:55 PM 60.8 °F 52.2 °F 73% 30.06 in 7.0 mi SSE 5.8 mph - 0.24 in Rain Rain
8:15 PM 60.4 °F 52.9 °F 76% 30.05 in 10.0 mi SE 5.8 mph - N/A Rain , Thunderstorm Light Thunderstorms and Rain
8:35 PM 60.3 °F 53.6 °F 79% 30.05 in 10.0 mi ESE 3.5 mph - N/A   Scattered Clouds
8:55 PM 60.1 °F 55.0 °F 83% 30.05 in 10.0 mi SE 4.6 mph - N/A   Clear
9:15 PM 60.3 °F 55.4 °F 84% 30.06 in 10.0 mi SE 5.8 mph - N/A   Clear
9:35 PM 60.1 °F 55.4 °F 85% 30.07 in 10.0 mi South 3.5 mph - N/A Thunderstorm Clear
9:55 PM 59.0 °F 55.4 °F 88% 30.08 in 10.0 mi SSE 5.8 mph - N/A   Clear
10:15 PM 59.9 °F 55.4 °F 85% 30.08 in 10.0 mi SE 4.6 mph - N/A   Clear
10:35 PM 59.9 °F 55.8 °F 86% 30.09 in 10.0 mi SSE 5.8 mph - N/A   Clear
10:55 PM 59.9 °F 55.4 °F 85% 30.10 in 10.0 mi SSE 5.8 mph - N/A   Clear
11:15 PM 59.5 °F 54.9 °F 84% 30.10 in 10.0 mi SSE 5.8 mph - N/A   Clear
11:35 PM 59.4 °F 54.5 °F 84% 30.10 in 10.0 mi SSE 5.8 mph - N/A   Clear
11:55 PM 59.4 °F 54.5 °F 84% 30.10 in 10.0 mi SSE 5.8 mph - N/A   Scattered Clouds